Find Starlink 30964

NORAD ID: 58402 Int'l Des: 2023-180 Owner: SPXS Country: US Constellation: starlink operational
LEOCIRCULAR

リアルタイム位置

3D地球を読み込み中...

Starlink 30964について

説明を読み込み中...

次回通過

Passes for default location (London). Set your location on the main map for personalized predictions.

高度履歴

Loading altitude history...

軌道要素

1 58402U 23180A 26130.52785258 -.00000931 00000-0 -24297-4 0 9990
2 58402 43.0068 63.2928 0001209 269.2301 90.8412 15.27572974137089
Epoch: May 10, 2026 • Age: 8 hours

現在のステータス

高度 493.2 km
速度 7.62 km/s
衛星直下点 -37.09°S, 164.52°W
打ち上げ日 Nov 22, 2023
運用期間 2.4 years
タイプ internet

技術仕様

分類 Payload
質量 730.00 kg
乾燥質量 700.00 kg
総質量 730.00 kg
長さ 0.30 m
直径 4.10 m
スパン 29.00 m
形状 Box + pan
製造者 SPXS
バスタイプ Starlink V2M
フェーズステータス In Orbit
所有者/国 SPXS/US

Most Searched